Wind_Speed
46 42 37 34 30 24 18 13 10 8 7 5 6 7 8 8 9 9 11 12 12 13
43 39 35 30 25 21 16 12 10 8 6 6 8 8 8 9 10 11 12 12 13 14
41 36 32 28 25 20 16 12 11 8 6 7 8 9 8 10 10 13 12 13 14 16
38 34 30 27 23 19 15 13 10 7 7 8 8 8 9 11 12 13 14 14 16 19
39 34 30 26 21 17 15 12 8 7 8 8 8 8 9 11 12 13 14 17 19 21
37 33 28 24 20 17 13 9 8 7 7 7 8 10 10 12 12 13 16 18 20 22
36 32 27 23 19 15 11 9 8 7 6 7 8 10 11 10 13 16 18 19 20 23
34 29 26 22 17 13 11 8 6 5 5 6 8 9 9 13 15 17 18 20 22 24
32 28 24 20 17 13 10 7 5 4 4 6 8 9 10 12 15 16 18 22 24 24
32 27 23 19 16 12 10 7 5 3 4 6 8 7 9 11 14 17 19 22 24 25
31 28 23 19 16 13 10 7 4 2 4 6 6 7 9 11 14 18 19 22 24 27
31 27 23 19 15 12 10 6 4 2 2 5 6 7 9 11 14 18 22 24 26 23
29 25 22 18 15 11 8 6 3 1 2 4 7 7 9 12 15 18 24 26 22 25
26 23 20 17 13 11 9 6 3 1 2 5 7 8 9 12 15 19 20 20 22 25
Wind_Direction
197 195 196 193 191 193 195 197 200 207 223 257 275 280 280 286 288 296 296 298 298 300
194 194 191 187 188 188 190 191 194 206 229 258 271 272 279 284 289 293 297 300 301 301
189 188 185 182 182 184 184 186 193 208 235 252 260 269 278 284 293 294 300 302 303 305
179 179 181 181 180 181 182 187 195 217 238 249 259 267 278 288 296 297 302 300 303 306
174 175 176 176 176 178 180 187 203 221 240 254 263 271 282 291 292 297 297 304 306 307
169 171 171 171 172 175 180 189 205 227 242 255 269 279 289 290 297 298 299 302 304 305
168 169 169 168 170 174 179 191 210 227 245 265 278 288 291 296 303 303 303 307 309 308
166 165 164 165 167 171 179 190 205 227 252 276 286 290 299 305 305 304 306 311 311 312
162 162 162 162 166 169 173 180 202 225 264 285 292 293 295 299 303 309 310 312 315 316
161 161 162 163 164 163 169 180 195 229 268 287 298 304 300 303 307 311 314 315 318 318
161 161 162 162 162 163 166 172 191 225 279 297 315 306 308 311 312 314 316 319 322 323
161 159 160 160 158 163 164 163 187 234 301 314 321 320 318 316 317 315 319 323 327 321
161 159 159 158 160 161 158 155 171 167 333 336 324 330 327 322 319 316 319 322 325 321
157 156 155 152 154 159 149 155 141 67 9 356 351 345 333 329 330 322 320 322 319 317
Height
754 763 771 778 783 789 793 797 799 801 804 805 806 806 805 804 803 801 801 799 796 794
752 760 768 775 781 786 791 793 796 799 800 802 803 803 802 801 800 798 798 795 793 790
748 758 766 772 777 782 787 789 793 795 796 797 799 799 798 798 797 796 794 791 788 785
746 755 763 769 774 778 782 786 788 790 793 795 795 794 794 794 793 792 790 788 784 781
744 752 760 767 771 775 780 783 785 787 790 791 791 790 789 790 790 788 786 784 780 776
742 751 759 764 769 774 777 780 783 786 787 788 788 788 787 787 785 784 783 779 776 772
741 749 757 762 767 771 774 778 782 783 784 785 785 785 785 783 781 780 778 775 772 768
741 749 755 761 765 769 774 777 779 781 781 781 782 782 781 780 778 776 773 770 767 763
741 748 754 759 764 768 772 774 777 778 778 779 780 780 779 777 776 773 769 766 762 758
739 747 753 758 762 766 769 772 774 775 776 777 777 776 776 775 772 769 765 762 758 754
737 745 752 756 760 764 766 769 772 773 775 775 774 774 773 772 769 764 761 757 753 748
736 743 749 754 758 762 765 767 770 772 772 773 773 772 771 768 765 761 757 752 748 744
735 741 747 752 757 761 763 766 769 770 771 771 771 769 767 765 762 758 753 748 745 742
734 740 746 751 757 761 762 766 767 769 770 769 768 766 765 763 759 755 750 747 743 739